Simultaneous Nadir Overpasses (SNOs) Predictions

Prediction of SNOs between AQUA and METOP-B Satellite Orbit:

Table of predicted SNOs for the next 14.0 days since TLE Epoch: 4/8/2016
Index Date (AQUA) Time (AQUA) Lat,Lon (AQUA) SZA (AQUA ) Date (METOP-B) Time (METOP-B) Lat,Lon (METOP-B) SZA (METOP-B ) Distance(km) Time Diff (sec)
1 04/09/2016 00:10:57 -73.89, -8.53 113.77 04/09/2016 00:10:19 -73.88, -8.43 113.77 3.19 38
2 04/09/2016 01:00:25 73.92, 159.03 66.26 04/09/2016 01:00:58 73.91, 158.96 66.24 2.63 33
3 04/11/2016 19:45:14 -73.89, 57.89 114.81 04/11/2016 19:44:42 -73.89, 57.98 114.81 2.67 32
4 04/11/2016 20:34:41 73.93,-134.56 65.22 04/11/2016 20:35:19 73.95,-134.52 65.25 3.24 38
5 04/14/2016 15:19:29 -73.85, 124.39 115.87 04/14/2016 15:19:04 -73.88, 124.38 115.83 3.47 25
6 04/14/2016 16:08:58 73.95, -68.18 64.23 04/14/2016 16:09:42 73.95, -68.13 64.22 1.46 44
7 04/17/2016 10:53:46 -73.89,-169.25 116.83 04/17/2016 10:53:27 -73.88,-169.23 116.84 1.23 19
8 04/17/2016 11:43:14 73.94, -1.72 63.21 04/17/2016 11:44:05 73.94, -1.75 63.21 0.98 51
9 04/20/2016 05:38:26 73.37, 90.65 61.66 04/20/2016 05:37:18 73.35, 88.62 61.71 64.75 68
10 04/20/2016 06:28:02 -73.89,-102.82 117.81 04/20/2016 06:27:50 -73.87,-102.85 117.82 2.34 12
11 04/20/2016 07:17:30 73.94, 64.70 62.24 04/20/2016 07:18:28 73.93, 64.63 62.22 2.67 58




NCC Satellite Simultaneous Nadir Overpasses (SNOs) Prediction Service
